EW8555 Weather Reports


Display with metric or nautical units.
time (UTC)temp
F
wind
direction
speed
MPH
gust
MPH
rain 1hr
in
rain 24hr
in
rain mn
in
humidity
%
barometer
mb
20260901231516 60 247 1.0 5.0 0.00 0.03 0.00 86 1017.2
20260901230010 61 259 3.0 5.0 0.00 0.03 0.00 86 1017.2
20260901224512 61 242 2.0 5.0 0.00 0.03 0.00 86 1017.2
20260901223007 61 246 3.0 5.0 0.00 0.03 0.00 85 1017.1
20260901221506 62 234 1.0 5.0 0.00 0.03 0.00 85 1017.2
20260901220003 62 255 2.0 6.0 0.00 0.03 0.00 84 1017.1
20260901214501 62 240 2.0 7.0 0.00 0.03 0.03 83 1017.0
20260901213003 63 248 3.0 7.0 0.00 0.03 0.03 82 1017.0
20260901211503 63 240 2.0 6.0 0.00 0.03 0.03 81 1017.0
20260901204559 63 254 2.0 6.0 0.00 0.03 0.03 81 1016.7
20260901203059 64 242 1.0 6.0 0.00 0.03 0.03 80 1016.7
20260901201558 64 222 2.0 5.0 0.00 0.03 0.03 77 1016.8
20260901200057 65 240 3.0 6.0 0.00 0.03 0.03 74 1016.7
20260901194602 65 248 2.0 8.0 0.00 0.19 0.03 73 1016.6
20260901193056 66 251 1.0 5.0 0.00 0.19 0.03 72 1016.7
20260901191554 67 244 1.0 7.0 0.00 0.19 0.03 71 1016.5
20260901190054 67 250 3.0 5.0 0.00 0.19 0.03 70 1016.5
20260901184557 68 260 2.0 9.0 0.00 0.20 0.03 70 1016.5
20260901183114 68 237 2.0 6.0 0.00 0.20 0.03 69 1016.2
20260901181547 68 249 1.0 5.0 0.00 0.20 0.03 67 1015.8
20260901180047 69 322 4.0 8.0 0.00 0.20 0.03 68 1015.7
20260901174547 69 301 3.0 5.0 0.00 0.20 0.03 69 1015.5
20260901173057 70 292 2.0 6.0 0.00 0.20 0.03 68 1015.4
20260901171553 70 263 0.0 3.0 0.00 0.20 0.03 69 1015.2
20260901170053 71 262 1.0 7.0 0.00 0.20 0.03 67 1015.2
20260901164546 71 279 2.0 7.0 0.00 0.20 0.03 66 1015.2
20260901163104 72 268 4.0 9.0 0.00 0.20 0.03 66 1015.2
20260901161550 72 278 3.0 7.0 0.00 0.20 0.03 66 1015.1
20260901160043 72 254 3.0 5.0 0.00 0.20 0.03 66 1015.1
20260901154547 72 281 1.0 4.0 0.01 0.20 0.03 69 1015.2
20260901153041 70 251 3.0 9.0 0.01 0.20 0.03 68 1015.3
20260901151550 69 282 3.0 9.0 0.01 0.20 0.03 71 1015.2
20260901150044 68 294 2.0 9.0 0.01 0.20 0.03 71 1015.2
20260901144538 71 284 3.0 9.0 0.00 0.19 0.02 65 1015.3
20260901143041 71 312 3.0 11.0 0.00 0.19 0.02 64 1015.2
20260901141544 70 287 1.0 8.0 0.01 0.19 0.02 69 1015.3
20260901140037 68 309 2.0 5.0 0.01 0.19 0.02 73 1015.3
20260901134537 68 296 2.0 9.0 0.01 0.19 0.02 70 1015.4
20260901133044 70 308 4.0 11.0 0.01 0.19 0.02 67 1015.5
20260901131540 72 294 5.0 13.0 0.00 0.18 0.01 60 1015.4
20260901130034 73 268 5.0 15.0 0.00 0.18 0.01 60 1015.3
20260901124532 72 314 4.0 17.0 0.00 0.18 0.01 64 1015.4
20260901123036 71 241 10.0 19.0 0.00 0.18 0.01 63 1015.5
20260901121529 71 247 5.0 15.0 0.00 0.18 0.01 62 1015.5
20260901120028 71 256 10.0 17.0 0.00 0.18 0.01 60 1015.5
20260901114528 71 333 7.0 17.0 0.00 0.18 0.01 61 1015.5
20260901113024 70 269 4.0 12.0 0.01 0.18 0.01 66 1015.6
20260901111523 69 298 5.0 17.0 0.01 0.18 0.01 69 1015.7
20260901110023 68 290 4.0 10.0 0.01 0.18 0.01 71 1015.7
20260901104525 69 282 5.0 12.0 0.01 0.18 0.01 69 1015.8
20260901103020 70 250 5.0 16.0 0.00 0.17 0.00 65 1015.6
20260901101519 70 304 3.0 19.0 0.00 0.17 0.00 65 1015.6
20260901100017 69 238 4.0 14.0 0.00 0.17 0.00 68 1015.4
20260901094514 68 302 3.0 13.0 0.00 0.17 0.00 69 1015.5
20260901093011 67 259 9.0 17.0 0.00 0.17 0.00 71 1015.5
20260901091510 67 281 8.0 17.0 0.00 0.17 0.00 72 1015.5
20260901090009 66 276 5.0 13.0 0.00 0.17 0.00 74 1015.4
20260901084503 65 255 6.0 17.0 0.00 0.17 0.00 75 1015.4
20260901083101 65 266 2.0 11.0 0.00 0.17 0.00 77 1015.3
20260901081557 64 260 4.0 13.0 0.00 0.17 0.00 79 1015.1
20260901080111 63 304 5.0 13.0 0.00 0.17 0.00 80 1015.0
20260901074607 63 242 4.0 13.0 0.00 0.23 0.00 82 1014.9
20260901073052 62 273 4.0 13.0 0.00 0.23 0.00 83 1014.8
20260901071549 62 260 2.0 17.0 0.00 0.23 0.00 84 1014.8
20260901070047 62 321 4.0 14.0 0.00 0.23 0.00 84 1014.7
20260901064545 61 254 6.0 14.0 0.00 0.25 0.00 85 1014.5
20260901063052 61 172 5.0 15.0 0.00 0.25 0.00 85 1014.4
20260901061541 61 242 4.0 15.0 0.00 0.25 0.00 86 1014.3
20260901060042 61 257 6.0 14.0 0.00 0.25 0.00 86 1014.1
20260901054538 60 204 5.0 11.0 0.00 0.25 0.00 86 1014.0
20260901053040 60 230 3.0 11.0 0.00 0.25 0.00 87 1013.8
20260901051532 60 270 4.0 9.0 0.00 0.25 0.00 87 1013.7
20260901050028 60 235 4.0 11.0 0.00 0.25 0.00 87 1013.6
20260901044524 60 259 6.0 12.0 0.00 0.25 0.00 88 1013.4
20260901043022 59 271 2.0 9.0 0.00 0.25 0.00 88 1013.2
20260901041523 59 243 2.0 11.0 0.00 0.25 0.00 88 1013.1
20260901040020 59 254 4.0 11.0 0.00 0.25 0.00 88 1012.9
20260901034517 59 234 2.0 8.0 0.00 0.25 0.00 88 1012.8
20260901033016 59 275 2.0 9.0 0.00 0.25 0.00 88 1012.6
20260901031513 59 277 5.0 10.0 0.00 0.25 0.00 89 1012.5
20260901030012 59 288 5.0 12.0 0.00 0.25 0.00 89 1012.4
20260901024510 59 248 4.0 9.0 0.00 0.25 0.00 89 1012.4
20260901023008 59 225 3.0 12.0 0.00 0.25 0.00 89 1012.3
20260901021511 59 239 5.0 9.0 0.00 0.25 0.00 89 1012.3
20260901020005 59 220 4.0 10.0 0.00 0.25 0.00 90 1012.2
20260901014501 59 252 5.0 10.0 0.00 0.25 0.00 90 1012.2
20260901013102 59 180 4.0 11.0 0.00 0.25 0.00 90 1012.1
20260901011552 59 218 4.0 10.0 0.00 0.25 0.00 90 1012.1
20260901010105 59 188 5.0 13.0 0.00 0.25 0.00 91 1012.1
20260901004547 58 236 5.0 10.0 0.00 0.25 0.00 91 1012.1
20260901003046 58 198 6.0 14.0 0.00 0.25 0.00 91 1012.0
20260901001545 58 231 6.0 10.0 0.00 0.25 0.00 91 1012.0
20260901000044 58 213 4.0 10.0 0.00 0.25 0.00 91 1012.0
20260831234541 58 249 2.0 8.0 0.00 0.25 0.00 91 1012.1
20260831233045 58 236 3.0 11.0 0.00 0.25 0.00 91 1012.0
20260831231539 58 254 2.0 6.0 0.00 0.25 0.00 91 1012.0